N6CTG Weather Reports


Display with metric or nautical units.
time (UTC)temp
F
wind
direction
speed
MPH
gust
MPH
rain 1hr
in
rain 24hr
in
rain mn
in
humidity
%
barometer
mb
20260904013604 72 251 2.0 5.0 0.00 0.00 0.00 63 1009.4
20260904012704 73 246 2.0 4.0 0.00 0.00 0.00 62 1009.6
20260904011804 73 251 3.0 8.0 0.00 0.00 0.00 61 1009.5
20260904010925 74 243 3.0 8.0 0.00 0.00 0.00 59 1009.4
20260904010004 74 242 4.0 9.0 0.00 0.00 0.00 60 1009.5
20260904005404 74 242 5.0 9.0 0.00 0.00 0.00 59 1009.5
20260904004504 75 255 4.0 9.0 0.00 0.00 0.00 58 1009.4
20260904003604 76 256 4.0 9.0 0.00 0.00 0.00 56 1009.4
20260904002704 77 257 5.0 9.0 0.00 0.00 0.00 56 1009.4
20260904001803 78 243 5.0 11.0 0.00 0.00 0.00 53 1009.3
20260904000904 78 241 5.0 10.0 0.00 0.00 0.00 52 1009.2
20260904000004 80 238 5.0 11.0 0.00 0.00 0.00 48 1009.2
20260903235425 80 235 5.0 11.0 0.00 0.00 0.00 46 1009.1
20260903234504 80 232 4.0 10.0 0.00 0.00 0.00 45 1009.1
20260903233604 80 220 4.0 9.0 0.00 0.00 0.00 45 1009.2
20260903232704 81 218 4.0 9.0 0.00 0.00 0.00 44 1009.2
20260903231804 81 222 4.0 9.0 0.00 0.00 0.00 44 1009.2
20260903230904 81 236 4.0 10.0 0.00 0.00 0.00 43 1009.4
20260903230004 82 227 3.0 9.0 0.00 0.00 0.00 43 1009.4
20260903225404 82 222 3.0 7.0 0.00 0.00 0.00 43 1009.4
20260903224503 82 228 4.0 9.0 0.00 0.00 0.00 45 1009.5
20260903223604 81 236 6.0 11.0 0.00 0.00 0.00 44 1009.6
20260903222704 82 237 5.0 10.0 0.00 0.00 0.00 43 1009.7
20260903221804 83 225 4.0 8.0 0.00 0.00 0.00 43 1009.7
20260903220904 82 244 5.0 10.0 0.00 0.00 0.00 42 1009.8
20260903220004 83 232 5.0 12.0 0.00 0.00 0.00 43 1009.8
20260903215403 82 232 6.0 12.0 0.00 0.00 0.00 44 1009.7
20260903214503 82 234 5.0 11.0 0.00 0.00 0.00 44 1009.8
20260903213604 82 246 4.0 9.0 0.00 0.00 0.00 45 1009.9
20260903212704 83 245 4.0 10.0 0.00 0.00 0.00 45 1009.9
20260903211803 82 245 6.0 11.0 0.00 0.00 0.00 48 1009.9
20260903210904 83 243 6.0 11.0 0.00 0.00 0.00 47 1009.9
20260903210004 83 255 5.0 11.0 0.00 0.00 0.00 48 1009.9
20260903205404 84 249 5.0 11.0 0.00 0.00 0.00 45 1010.0
20260903204504 83 243 5.0 10.0 0.00 0.00 0.00 44 1009.9
20260903203603 84 248 5.0 12.0 0.00 0.00 0.00 43 1009.8
20260903202704 84 235 5.0 11.0 0.00 0.00 0.00 44 1010.0
20260903201804 84 231 5.0 10.0 0.00 0.00 0.00 39 1010.2
20260903200904 84 232 5.0 10.0 0.00 0.00 0.00 35 1010.2
20260903200004 84 231 4.0 10.0 0.00 0.00 0.00 32 1010.3
20260903195404 84 231 5.0 12.0 0.00 0.00 0.00 31 1010.3
20260903194504 84 212 3.0 12.0 0.00 0.00 0.00 29 1010.4
20260903193604 84 215 3.0 8.0 0.00 0.00 0.00 29 1010.5
20260903192704 84 227 3.0 9.0 0.00 0.00 0.00 29 1010.6
20260903191804 84 226 3.0 8.0 0.00 0.00 0.00 29 1010.8
20260903190904 83 221 3.0 9.0 0.00 0.00 0.00 30 1011.0
20260903190004 82 233 4.0 10.0 0.00 0.00 0.00 31 1011.2
20260903185404 83 242 3.0 9.0 0.00 0.00 0.00 30 1011.3
20260903184503 82 236 3.0 7.0 0.00 0.00 0.00 30 1011.3
20260903183603 81 247 3.0 7.0 0.00 0.00 0.00 28 1011.6
20260903182704 82 216 2.0 7.0 0.00 0.00 0.00 26 1011.8
20260903181824 81 247 2.0 7.0 0.00 0.00 0.00 27 1011.8
20260903180904 80 222 3.0 6.0 0.00 0.00 0.00 26 1011.9
20260903180004 80 223 2.0 5.0 0.00 0.00 0.00 27 1012.0
20260903175404 80 183 2.0 4.0 0.00 0.00 0.00 27 1012.1
20260903174525 79 181 1.0 7.0 0.00 0.00 0.00 27 1012.1
20260903173604 78 231 2.0 4.0 0.00 0.00 0.00 30 1012.1
20260903172725 78 253 0.0 3.0 0.00 0.00 0.00 32 1012.1
20260903171803 77 222 1.0 4.0 0.00 0.00 0.00 33 1012.1
20260903170904 76 246 2.0 5.0 0.00 0.00 0.00 28 1012.1
20260903170004 76 250 0.0 2.0 0.00 0.00 0.00 35 1012.2
20260903165404 75 136 0.0 2.0 0.00 0.00 0.00 37 1012.1
20260903164503 73 240 2.0 4.0 0.00 0.00 0.00 39 1012.2
20260903163604 72 239 1.0 3.0 0.00 0.00 0.00 42 1012.2
20260903162704 72 234 0.0 3.0 0.00 0.00 0.00 43 1012.3
20260903161804 71 276 0.0 1.0 0.00 0.00 0.00 48 1012.4
20260903160925 70 0 0.0 0.0 0.00 0.00 0.00 47 1012.4
20260903160004 68 0 0.0 0.0 0.00 0.00 0.00 48 1012.3
20260903155425 67 0 0.0 0.0 0.00 0.00 0.00 49 1012.4
20260903154503 67 0 0.0 0.0 0.00 0.00 0.00 56 1012.4
20260903153604 66 231 0.0 1.0 0.00 0.00 0.00 61 1012.4
20260903152703 64 0 0.0 0.0 0.00 0.00 0.00 65 1012.5
20260903151804 63 0 0.0 0.0 0.00 0.00 0.00 65 1012.5
20260903150903 61 245 0.0 1.0 0.00 0.00 0.00 65 1012.6
20260903150025 60 0 0.0 0.0 0.00 0.00 0.00 66 1012.5
20260903145404 59 0 0.0 0.0 0.00 0.00 0.00 67 1012.5
20260903144504 57 0 0.0 0.0 0.00 0.00 0.00 70 1012.5
20260903143604 57 242 0.0 1.0 0.00 0.00 0.00 72 1012.4
20260903142704 57 0 0.0 0.0 0.00 0.00 0.00 73 1012.4
20260903141804 58 0 0.0 0.0 0.00 0.00 0.00 78 1012.4
20260903140904 50 0 0.0 0.0 0.00 0.00 0.00 85 1012.2
20260903140004 50 0 0.0 0.0 0.00 0.00 0.00 85 1012.1
20260903135403 50 0 0.0 0.0 0.00 0.00 0.00 85 1012.1
20260903134525 50 0 0.0 0.0 0.00 0.00 0.00 85 1012.0
20260903133603 50 0 0.0 0.0 0.00 0.00 0.00 85 1011.9
20260903132704 50 0 0.0 0.0 0.00 0.00 0.00 85 1011.9
20260903131804 50 0 0.0 0.0 0.00 0.00 0.00 85 1011.9
20260903130904 50 0 0.0 0.0 0.00 0.00 0.00 85 1011.9
20260903130004 50 0 0.0 0.0 0.00 0.00 0.00 85 1011.9
20260903125404 50 0 0.0 0.0 0.00 0.00 0.00 85 1011.9
20260903124525 50 0 0.0 0.0 0.00 0.00 0.00 85 1011.8
20260903123603 50 0 0.0 0.0 0.00 0.00 0.00 85 1011.8
20260903122704 50 0 0.0 0.0 0.00 0.00 0.00 85 1011.6
20260903121804 50 0 0.0 0.0 0.00 0.00 0.00 85 1011.7
20260903120903 50 0 0.0 0.0 0.00 0.00 0.00 85 1011.7
20260903120004 50 0 0.0 0.0 0.00 0.00 0.00 85 1011.7
20260903115404 50 0 0.0 0.0 0.00 0.00 0.00 85 1011.7
20260903114504 50 0 0.0 0.0 0.00 0.00 0.00 85 1011.8
20260903113603 50 0 0.0 0.0 0.00 0.00 0.00 85 1011.8
20260903112704 50 0 0.0 0.0 0.00 0.00 0.00 85 1011.8
20260903111804 50 0 0.0 0.0 0.00 0.00 0.00 85 1011.8
20260903110904 52 0 0.0 0.0 0.00 0.00 0.00 86 1011.9
20260903110004 52 0 0.0 0.0 0.00 0.00 0.00 86 1012.0
20260903105404 52 0 0.0 0.0 0.00 0.00 0.00 86 1012.0
20260903104504 51 0 0.0 0.0 0.00 0.00 0.00 86 1011.8
20260903103604 52 0 0.0 0.0 0.00 0.00 0.00 85 1011.8
20260903102704 52 0 0.0 0.0 0.00 0.00 0.00 85 1011.9
20260903101804 52 0 0.0 0.0 0.00 0.00 0.00 85 1011.9
20260903100904 52 0 0.0 0.0 0.00 0.00 0.00 85 1012.0
20260903100004 52 0 0.0 0.0 0.00 0.00 0.00 84 1011.9
20260903095404 53 0 0.0 0.0 0.00 0.00 0.00 84 1011.9
20260903094504 53 0 0.0 0.0 0.00 0.00 0.00 84 1012.0
20260903093604 53 0 0.0 0.0 0.00 0.00 0.00 84 1012.1
20260903092725 54 0 0.0 0.0 0.00 0.00 0.00 84 1012.2
20260903091804 54 0 0.0 0.0 0.00 0.00 0.00 83 1012.2
20260903090904 54 0 0.0 0.0 0.00 0.00 0.00 83 1012.3
20260903090004 54 0 0.0 0.0 0.00 0.00 0.00 83 1012.3
20260903085425 54 0 0.0 0.0 0.00 0.00 0.00 83 1012.4
20260903084504 54 0 0.0 0.0 0.00 0.00 0.00 82 1012.5
20260903083604 55 0 0.0 0.0 0.00 0.00 0.00 82 1012.6
20260903082704 55 0 0.0 0.0 0.00 0.00 0.00 82 1012.7
20260903081804 56 0 0.0 0.0 0.00 0.00 0.00 82 1012.7
20260903080904 56 0 0.0 0.0 0.00 0.00 0.00 82 1012.8
20260903080004 56 0 0.0 0.0 0.00 0.00 0.00 81 1012.8
20260903075404 56 0 0.0 0.0 0.00 0.00 0.00 81 1012.7
20260903074504 56 0 0.0 0.0 0.00 0.00 0.00 80 1012.8
20260903073604 57 0 0.0 0.0 0.00 0.00 0.00 80 1012.8
20260903072704 57 0 0.0 0.0 0.00 0.00 0.00 80 1012.8
20260903071804 57 0 0.0 0.0 0.00 0.00 0.00 80 1012.8
20260903070904 57 0 0.0 0.0 0.00 0.00 0.00 80 1012.7
20260903070004 57 0 0.0 0.0 0.00 0.00 0.00 79 1012.9
20260903065404 57 0 0.0 0.0 0.00 0.00 0.00 79 1012.8
20260903064504 58 0 0.0 0.0 0.00 0.00 0.00 79 1012.9
20260903063604 58 0 0.0 0.0 0.00 0.00 0.00 79 1012.8
20260903062704 58 0 0.0 0.0 0.00 0.00 0.00 79 1012.7
20260903061804 58 0 0.0 0.0 0.00 0.00 0.00 79 1012.7
20260903060904 59 0 0.0 0.0 0.00 0.00 0.00 78 1012.7
20260903060004 59 0 0.0 0.0 0.00 0.00 0.00 78 1012.7
20260903055425 59 0 0.0 0.0 0.00 0.00 0.00 77 1012.7
20260903054504 59 0 0.0 0.0 0.00 0.00 0.00 76 1012.8
20260903053604 60 0 0.0 0.0 0.00 0.00 0.00 76 1012.8
20260903052704 60 0 0.0 0.0 0.00 0.00 0.00 76 1012.9
20260903051804 61 0 0.0 0.0 0.00 0.00 0.00 76 1012.8
20260903050904 61 0 0.0 0.0 0.00 0.00 0.00 76 1012.9
20260903050004 61 0 0.0 0.0 0.00 0.00 0.00 75 1012.9
20260903045404 62 0 0.0 0.0 0.00 0.00 0.00 75 1012.9
20260903044504 62 0 0.0 0.0 0.00 0.00 0.00 74 1012.9
20260903043604 62 0 0.0 0.0 0.00 0.00 0.00 73 1012.8
20260903042704 62 0 0.0 0.0 0.00 0.00 0.00 73 1012.7
20260903041804 63 0 0.0 0.0 0.00 0.00 0.00 72 1012.6
20260903040904 63 0 0.0 0.0 0.00 0.00 0.00 71 1012.5
20260903040004 64 0 0.0 0.0 0.00 0.00 0.00 70 1012.5
20260903035404 64 0 0.0 0.0 0.00 0.00 0.00 70 1012.4
20260903034504 65 0 0.0 0.0 0.00 0.00 0.00 69 1012.3
20260903033625 65 0 0.0 0.0 0.00 0.00 0.00 68 1012.2
20260903032704 66 0 0.0 0.0 0.00 0.00 0.00 68 1012.1
20260903031804 66 0 0.0 0.0 0.00 0.00 0.00 68 1012.0
20260903030904 67 0 0.0 0.0 0.00 0.00 0.00 68 1012.0
20260903030004 67 0 0.0 0.0 0.00 0.00 0.00 67 1011.9
20260903025425 68 262 0.0 1.0 0.00 0.00 0.00 66 1011.9
20260903024504 68 251 1.0 4.0 0.00 0.00 0.00 65 1011.8
20260903023604 69 253 1.0 4.0 0.00 0.00 0.00 64 1011.7
20260903022704 70 252 2.0 5.0 0.00 0.00 0.00 63 1011.7
20260903021804 70 254 2.0 4.0 0.00 0.00 0.00 61 1011.6
20260903020904 71 257 2.0 4.0 0.00 0.00 0.00 60 1011.6
20260903020004 73 257 2.0 4.0 0.00 0.00 0.00 57 1011.5
20260903015404 73 253 2.0 7.0 0.00 0.00 0.00 56 1011.4
20260903014504 74 246 3.0 7.0 0.00 0.00 0.00 55 1011.4